Location: Unspecified
(0.0000°N, 0.0000°E)
Time: 13:43:43
(UTC+00:00)

Vanguard 3 - Pass Details

Date: 28 November 2019
Orbit: 508 x 3263 km, 33.3° (Epoch: 08 December)

Event Time Altitude Azimuth Distance (km) Brightness Sun altitude
Rises 14:25:51 0° 314° (NW) 6,932 12.0 46.0°
Reaches altitude 10° 14:32:59 10° 330° (NNW) 6,136 11.7 44.4°
Maximum altitude 14:45:33 20° 10° (N) 5,328 11.2 41.7°
Drops below altitude 10° 14:57:06 10° 50° (NE) 5,638 11.1 39.2°
Sets 15:03:05 0° 66° (ENE) 6,233 11.2 37.9°
